CW4114 Weather Reports


time (UTC)temp
C
wind
direction
speed
KPH
gust
KPH
rain 1hr
cm
rain 24hr
cm
rain mn
cm
humidity
%
barometer
mb
20220124102328 -10 224 9.7 20.9 0.00 0.00 0.00 76 1003.8
20220124101825 -10 204 8.0 17.7 0.00 0.00 0.00 76 1003.8
20220124101325 -10 214 11.3 17.7 0.00 0.00 0.00 76 1003.8
20220124100824 -10 219 6.4 19.3 0.00 0.00 0.00 76 1003.8
20220124100322 -10 234 9.7 20.9 0.00 0.00 0.00 76 1003.9
20220124095823 -10 264 6.4 20.9 0.00 0.00 0.00 75 1004.0
20220124095319 -10 214 8.0 20.9 0.00 0.00 0.00 75 1004.1
20220124094820 -10 234 11.3 20.9 0.00 0.00 0.00 75 1004.2
20220124094320 -10 185 9.7 19.3 0.00 0.00 0.00 75 1004.1
20220124093820 -10 240 9.7 17.7 0.00 0.00 0.00 75 1004.3
20220124093320 -10 233 11.3 17.7 0.00 0.00 0.00 75 1004.2
20220124092819 -10 237 8.0 17.7 0.00 0.00 0.00 74 1004.4
20220124092317 -10 213 9.7 17.7 0.00 0.00 0.00 74 1004.5
20220124091817 -10 221 8.0 17.7 0.00 0.00 0.00 74 1004.5
20220124091315 -10 213 9.7 20.9 0.00 0.00 0.00 74 1004.6
20220124090818 -10 243 9.7 20.9 0.00 0.00 0.00 74 1004.6
20220124090314 -10 221 11.3 19.3 0.00 0.00 0.00 74 1004.9
20220124085814 -10 217 9.7 17.7 0.00 0.00 0.00 74 1004.8
20220124085314 -10 212 11.3 19.3 0.00 0.00 0.00 74 1004.8
20220124084814 -10 202 8.0 19.3 0.00 0.00 0.00 73 1005.0
20220124084314 -10 221 6.4 16.1 0.00 0.00 0.00 73 1005.1
20220124083814 -10 223 9.7 16.1 0.00 0.00 0.00 73 1005.1
20220124083314 -10 214 6.4 19.3 0.00 0.00 0.00 73 1005.1
20220124082814 -10 199 8.0 19.3 0.00 0.00 0.00 73 1005.3
20220124082314 -10 226 9.7 14.5 0.00 0.00 0.00 73 1005.4
20220124081818 -10 212 8.0 17.7 0.00 0.00 0.00 73 1005.5
20220124081314 -10 228 9.7 19.3 0.00 0.00 0.00 73 1005.6
20220124080815 -10 228 6.4 19.3 0.00 0.00 0.00 73 1005.7
20220124080313 -10 221 9.7 19.3 0.00 0.00 0.00 72 1005.8
20220124075813 -10 255 12.9 19.3 0.00 0.00 0.00 72 1005.7
20220124075315 -10 204 9.7 19.3 0.00 0.00 0.00 72 1005.9
20220124074818 -10 214 9.7 19.3 0.00 0.00 0.00 72 1005.9
20220124074312 -10 223 8.0 17.7 0.00 0.00 0.00 72 1005.9
20220124073813 -10 268 9.7 22.5 0.00 0.00 0.00 72 1006.0
20220124073314 -10 238 11.3 22.5 0.00 0.00 0.00 72 1006.1
20220124072813 -10 230 11.3 22.5 0.00 0.00 0.00 72 1006.1
20220124072321 -10 209 11.3 19.3 0.00 0.00 0.00 72 1006.3
20220124071816 -10 224 11.3 24.1 0.00 0.00 0.00 72 1006.3
20220124071315 -10 214 12.9 24.1 0.00 0.00 0.00 72 1006.3
20220124070811 -10 219 9.7 24.1 0.00 0.00 0.00 72 1006.3
20220124070311 -10 233 9.7 20.9 0.00 0.00 0.00 72 1006.4
20220124065811 -10 195 11.3 19.3 0.00 0.00 0.00 72 1006.4
20220124065311 -10 197 6.4 20.9 0.00 0.00 0.00 73 1006.4
20220124064810 -10 214 8.0 20.9 0.00 0.00 0.00 72 1006.3
20220124064311 -10 219 9.7 17.7 0.00 0.00 0.00 73 1006.5
20220124063811 -10 216 11.3 17.7 0.00 0.00 0.00 73 1006.7
20220124063310 -10 199 9.7 17.7 0.00 0.00 0.00 73 1006.8
20220124062810 -10 223 8.0 17.7 0.00 0.00 0.00 73 1006.8
20220124062312 -10 219 9.7 17.7 0.00 0.00 0.00 73 1006.7
20220124061810 -10 213 9.7 20.9 0.00 0.00 0.00 73 1006.8
20220124061311 -10 237 9.7 20.9 0.00 0.00 0.00 73 1007.0
20220124060810 -10 214 9.7 19.3 0.00 0.00 0.00 73 1007.0
20220124060312 -10 227 8.0 19.3 0.00 0.00 0.00 74 1007.1
20220124055810 -10 275 8.0 16.1 0.00 0.00 0.00 74 1007.2
20220124055310 -10 227 6.4 16.1 0.00 0.00 0.00 75 1007.2
20220124054810 -10 231 8.0 16.1 0.00 0.00 0.00 75 1007.3
20220124054309 -10 185 4.8 14.5 0.00 0.00 0.00 75 1007.3
20220124053809 -10 264 6.4 11.3 0.00 0.00 0.00 75 1007.4
20220124053308 -10 223 6.4 11.3 0.00 0.00 0.00 76 1007.5
20220124052810 -10 226 4.8 11.3 0.00 0.00 0.00 76 1007.6
20220124052308 -10 219 4.8 14.5 0.00 0.00 0.00 77 1007.7
20220124051810 -10 216 6.4 14.5 0.00 0.00 0.00 77 1007.8
20220124051308 -11 179 6.4 14.5 0.00 0.00 0.00 78 1007.7
20220124050808 -11 221 6.4 11.3 0.00 0.00 0.00 78 1007.8
20220124050308 -11 219 6.4 9.7 0.00 0.00 0.00 78 1007.8
20220124045808 -11 234 4.8 9.7 0.00 0.00 0.00 78 1008.0
20220124045307 -11 217 3.2 9.7 0.00 0.00 0.00 78 1008.0
20220124044807 -11 226 4.8 9.7 0.00 0.00 0.00 79 1008.0
20220124044307 -11 219 3.2 8.0 0.00 0.00 0.00 79 1008.1
20220124043807 -11 241 4.8 8.0 0.00 0.00 0.00 79 1008.1
20220124043308 -11 209 4.8 8.0 0.00 0.00 0.00 79 1008.1
20220124042808 -11 214 3.2 6.4 0.00 0.00 0.00 79 1008.1
20220124042307 -11 193 3.2 6.4 0.00 0.00 0.00 79 1008.2
20220124041807 -11 221 3.2 6.4 0.00 0.00 0.00 79 1008.2
20220124041306 -11 203 1.6 6.4 0.00 0.00 0.00 79 1008.2
20220124040806 -10 213 3.2 4.8 0.00 0.00 0.00 78 1008.3
20220124040308 -10 207 1.6 4.8 0.00 0.00 0.00 79 1008.4
20220124035807 -10 210 1.6 4.8 0.00 0.00 0.00 78 1008.4
20220124035307 -10 204 1.6 4.8 0.00 0.00 0.00 78 1008.5
20220124034805 -10 226 1.6 4.8 0.00 0.00 0.00 78 1008.6
20220124034306 -10 219 1.6 4.8 0.00 0.00 0.00 78 1008.7
20220124033805 -10 216 1.6 3.2 0.00 0.00 0.00 78 1008.7
20220124033305 -10 219 1.6 4.8 0.00 0.00 0.00 77 1008.7
20220124032805 -10 213 3.2 4.8 0.00 0.00 0.00 77 1008.7
20220124032307 -10 219 3.2 6.4 0.00 0.00 0.00 77 1008.9
20220124031804 -10 226 3.2 6.4 0.00 0.00 0.00 77 1008.9
20220124031305 -10 220 3.2 6.4 0.00 0.00 0.00 77 1008.8
20220124030805 -10 209 1.6 4.8 0.00 0.00 0.00 77 1008.8
20220124030304 -10 219 3.2 4.8 0.00 0.00 0.00 76 1008.8
20220124025807 -10 224 3.2 4.8 0.00 0.00 0.00 76 1008.8
20220124025305 -10 210 3.2 4.8 0.00 0.00 0.00 76 1008.8
20220124024804 -10 216 1.6 4.8 0.00 0.00 0.00 76 1009.0
20220124024304 -10 219 1.6 4.8 0.00 0.00 0.00 75 1009.1
20220124023805 -10 230 1.6 4.8 0.00 0.00 0.00 75 1009.4
20220124023305 -10 223 3.2 4.8 0.00 0.00 0.00 75 1009.5
20220124022803 -10 230 3.2 4.8 0.00 0.00 0.00 75 1009.5
20220124022305 -10 226 1.6 3.2 0.00 0.00 0.00 74 1009.5
20220124021806 -10 237 1.6 4.8 0.00 0.00 0.00 74 1009.6
20220124021303 -10 238 1.6 4.8 0.00 0.00 0.00 74 1009.7
20220124020804 -10 234 1.6 3.2 0.00 0.00 0.00 74 1009.7
20220124020303 -10 241 1.6 3.2 0.00 0.00 0.00 73 1009.7
20220124015804 -10 231 1.6 3.2 0.00 0.00 0.00 73 1009.7
20220124015304 -10 233 1.6 3.2 0.00 0.00 0.00 73 1009.6
20220124014806 -10 234 1.6 6.4 0.00 0.00 0.00 73 1009.7
20220124014305 -10 258 3.2 6.4 0.00 0.00 0.00 73 1009.7
20220124013803 -10 248 3.2 6.4 0.00 0.00 0.00 72 1009.9
20220124013301 -10 241 3.2 6.4 0.00 0.00 0.00 72 1009.9
20220124012802 -10 250 3.2 6.4 0.00 0.00 0.00 72 1009.9
20220124012305 -10 279 3.2 6.4 0.00 0.00 0.00 72 1010.1
20220124011803 -10 262 4.8 6.4 0.00 0.00 0.00 71 1010.1
20220124011302 -10 265 3.2 8.0 0.00 0.00 0.00 71 1010.2
20220124010803 -9 282 4.8 8.0 0.00 0.00 0.00 71 1010.2
20220124010301 -9 272 3.2 9.7 0.00 0.00 0.00 71 1010.2
20220124005803 -9 271 4.8 9.7 0.00 0.00 0.00 71 1010.3
20220124005301 -9 295 4.8 9.7 0.00 0.00 0.00 71 1010.3
20220124004800 -9 276 4.8 8.0 0.00 0.00 0.00 71 1010.3
20220124004302 -9 309 1.6 8.0 0.00 0.00 0.00 71 1010.5
20220124003803 -9 275 3.2 8.0 0.00 0.00 0.00 71 1010.4
20220124003305 -9 316 1.6 9.7 0.00 0.00 0.00 71 1010.5
20220124002801 -9 282 3.2 9.7 0.00 0.00 0.00 71 1010.4
20220124002300 -10 293 4.8 11.3 0.00 0.00 0.00 71 1010.5
20220124001759 -10 257 4.8 11.3 0.00 0.00 0.00 70 1010.5
20220124001257 -10 292 6.4 11.3 0.00 0.00 0.00 69 1010.5
20220124000756 -10 281 3.2 6.4 0.00 0.00 0.00 69 1010.5
20220124000256 -10 262 3.2 6.4 0.00 0.00 0.00 69 1010.5
20220123235756 -10 264 3.2 6.4 0.00 0.00 0.00 69 1010.5
20220123235257 -10 275 3.2 6.4 0.00 0.00 0.00 68 1010.6
20220123234756 -10 265 3.2 6.4 0.00 0.00 0.00 68 1010.6
20220123234256 -10 252 3.2 6.4 0.00 0.00 0.00 68 1010.5
20220123233758 -10 259 1.6 6.4 0.00 0.00 0.00 68 1010.4
20220123233252 -10 267 3.2 6.4 0.00 0.00 0.00 67 1010.4
20220123232752 -10 272 3.2 6.4 0.00 0.00 0.00 67 1010.4
20220123232251 -10 247 1.6 4.8 0.00 0.00 0.00 67 1010.3
20220123231752 -10 244 1.6 4.8 0.00 0.00 0.00 67 1010.3
20220123231253 -10 245 1.6 4.8 0.00 0.00 0.00 66 1010.3
20220123230753 -10 258 3.2 6.4 0.00 0.00 0.00 66 1010.3
20220123230251 -10 279 3.2 6.4 0.00 0.00 0.00 66 1010.3
20220123225751 -10 282 3.2 6.4 0.00 0.00 0.00 65 1010.2
20220123225251 -10 276 3.2 6.4 0.00 0.00 0.00 65 1010.2
20220123224751 -10 281 3.2 8.0 0.00 0.00 0.00 65 1010.2
20220123224250 -10 278 3.2 8.0 0.00 0.00 0.00 64 1010.1
20220123223751 -10 283 4.8 11.3 0.00 0.00 0.00 64 1010.1
20220123223249 -9 262 4.8 11.3 0.00 0.00 0.00 63 1010.0
20220123222749 -9 272 4.8 11.3 0.00 0.00 0.00 63 1010.0
20220123222249 -9 283 4.8 19.3 0.00 0.00 0.00 62 1010.0
20220123221752 -9 227 9.7 20.9 0.00 0.00 0.00 62 1009.9
20220123221246 -9 303 9.7 20.9 0.00 0.00 0.00 62 1009.9
20220123220749 -9 251 11.3 22.5 0.00 0.00 0.00 62 1009.9
20220123220244 -8 296 12.9 22.5 0.00 0.00 0.00 63 1009.8
20220123215746 -8 274 9.7 17.7 0.00 0.00 0.00 63 1009.7
20220123215245 -8 279 9.7 17.7 0.00 0.00 0.00 62 1009.8
20220123214746 -8 278 9.7 17.7 0.00 0.00 0.00 63 1009.7
20220123214245 -8 279 8.0 17.7 0.00 0.00 0.00 64 1009.7
20220123213745 -8 298 8.0 17.7 0.00 0.00 0.00 64 1009.7
20220123213245 -8 288 8.0 17.7 0.00 0.00 0.00 64 1009.7
20220123212746 -8 261 6.4 11.3 0.00 0.00 0.00 65 1009.8
20220123212243 -8 289 1.6 16.1 0.00 0.00 0.00 64 1009.7
20220123211743 -8 305 4.8 22.5 0.00 0.00 0.00 64 1009.7
20220123211243 -8 285 11.3 22.5 0.00 0.00 0.00 64 1009.8
20220123210743 -8 286 8.0 17.7 0.00 0.00 0.00 64 1009.7
20220123210244 -8 261 9.7 25.7 0.00 0.00 0.00 63 1009.8
20220123205742 -8 272 17.7 25.7 0.00 0.00 0.00 62 1009.7
20220123205241 -8 274 8.0 17.7 0.00 0.00 0.00 62 1009.7
20220123204742 -8 274 9.7 20.9 0.00 0.00 0.00 62 1009.8
20220123204242 -8 329 4.8 20.9 0.00 0.00 0.00 62 1009.8
20220123203744 -8 257 11.3 25.7 0.00 0.00 0.00 62 1009.9
20220123203241 -8 272 14.5 25.7 0.00 0.00 0.00 61 1009.9
20220123202742 -8 269 14.5 25.7 0.00 0.00 0.00 60 1009.9
20220123202238 -8 289 11.3 22.5 0.00 0.00 0.00 60 1010.0
20220123201739 -7 338 6.4 20.9 0.00 0.00 0.00 61 1009.9
20220123201237 -7 313 9.7 20.9 0.00 0.00 0.00 62 1009.9
20220123200737 -8 303 6.4 17.7 0.00 0.00 0.00 61 1010.0
20220123200235 -8 289 8.0 19.3 0.00 0.00 0.00 61 1010.0
20220123195735 -8 274 9.7 19.3 0.00 0.00 0.00 62 1010.0
20220123195236 -8 262 6.4 17.7 0.00 0.00 0.00 61 1010.0
20220123194736 -8 15 9.7 25.7 0.00 0.00 0.00 61 1010.1
20220123194235 -8 316 4.8 25.7 0.00 0.00 0.00 61 1010.1
20220123193735 -8 286 11.3 19.3 0.00 0.00 0.00 61 1010.0
20220123193234 -8 258 8.0 19.3 0.00 0.00 0.00 60 1010.2
20220123192734 -8 275 6.4 16.1 0.00 0.00 0.00 61 1010.2
20220123192234 -8 272 6.4 16.1 0.00 0.00 0.00 60 1010.3
20220123191732 -8 299 6.4 17.7 0.00 0.00 0.00 61 1010.4
20220123191232 -8 269 11.3 17.7 0.00 0.00 0.00 62 1010.4
20220123190735 -8 261 4.8 14.5 0.00 0.00 0.00 62 1010.4
20220123190233 -8 276 4.8 17.7 0.00 0.00 0.00 61 1010.5
20220123185729 -8 258 8.0 17.7 0.00 0.00 0.00 61 1010.5
20220123185229 -8 278 11.3 20.9 0.00 0.00 0.00 61 1010.6
20220123184729 -7 244 6.4 20.9 0.00 0.00 0.00 62 1010.6
20220123184227 -8 286 12.9 19.3 0.00 0.00 0.00 62 1010.6
20220123183728 -8 281 3.2 11.3 0.00 0.00 0.00 62 1010.6
20220123183226 -8 323 3.2 19.3 0.00 0.00 0.00 64 1010.7
20220123182725 -8 298 8.0 19.3 0.00 0.00 0.00 63 1010.8
20220123182225 -8 302 1.6 8.0 0.00 0.00 0.00 64 1010.9
20220123181726 -8 312 1.6 6.4 0.00 0.00 0.00 65 1010.9
20220123181228 -8 281 1.6 11.3 0.00 0.00 0.00 67 1010.9
20220123180725 -9 316 3.2 11.3 0.00 0.00 0.00 70 1011.0
20220123180223 -9 259 4.8 8.0 0.00 0.00 0.00 69 1011.0
20220123175723 -9 255 0.0 9.7 0.00 0.00 0.00 71 1011.0
20220123175223 -10 313 1.6 9.7 0.00 0.00 0.00 74 1011.1
20220123174724 -10 314 1.6 9.7 0.00 0.00 0.00 74 1011.1
20220123174222 -10 344 6.4 9.7 0.00 0.00 0.00 74 1011.3
20220123173722 -10 322 1.6 9.7 0.00 0.00 0.00 76 1011.3
20220123173222 -10 354 1.6 9.7 0.00 0.00 0.00 76 1011.5
20220123172724 -10 348 3.2 8.0 0.00 0.00 0.00 75 1011.5
20220123172222 -10 324 1.6 6.4 0.00 0.00 0.00 76 1011.6
20220123171722 -10 336 3.2 8.0 0.00 0.00 0.00 77 1011.7
20220123171227 -10 11 3.2 8.0 0.00 0.00 0.00 77 1011.8
20220123170722 -10 1 3.2 8.0 0.00 0.00 0.00 77 1011.8
20220123170220 -10 327 3.2 8.0 0.00 0.00 0.00 77 1011.9
20220123165721 -10 37 1.6 8.0 0.00 0.00 0.00 77 1012.0
20220123165222 -10 358 4.8 9.7 0.00 0.00 0.00 75 1012.0
20220123164721 -9 44 4.8 9.7 0.00 0.00 0.00 78 1012.0
20220123164220 -9 32 3.2 8.0 0.00 0.00 0.00 78 1012.2
20220123163719 -10 35 4.8 14.5 0.00 0.00 0.00 80 1012.2
20220123163218 -10 66 6.4 14.5 0.00 0.00 0.00 79 1012.2
20220123162718 -10 289 3.2 8.0 0.00 0.00 0.00 80 1012.2
20220123162216 -10 35 1.6 8.0 0.00 0.00 0.00 80 1012.2
20220123161717 -10 82 3.2 8.0 0.00 0.00 0.00 81 1012.3
20220123161215 -10 59 4.8 9.7 0.00 0.00 0.00 82 1012.3
20220123160714 -10 55 4.8 9.7 0.00 0.00 0.00 82 1012.2
20220123160215 -10 343 3.2 9.7 0.00 0.00 0.00 81 1012.3
20220123155714 -10 42 3.2 9.7 0.00 0.00 0.00 82 1012.3
20220123155212 -10 45 3.2 11.3 0.00 0.00 0.00 81 1012.3
20220123154713 -10 330 0.0 16.1 0.00 0.00 0.00 82 1012.3
20220123154212 -10 8 0.0 16.1 0.00 0.00 0.00 83 1012.3
20220123153710 -10 56 1.6 6.4 0.00 0.00 0.00 82 1012.3
20220123153209 -10 326 3.2 11.3 0.00 0.00 0.00 83 1012.4
20220123152709 -10 7 6.4 14.5 0.00 0.00 0.00 83 1012.4
20220123152208 -10 58 6.4 14.5 0.00 0.00 0.00 83 1012.3
20220123151709 -10 21 3.2 16.1 0.00 0.00 0.00 83 1012.4
20220123151209 -10 4 4.8 16.1 0.00 0.00 0.00 83 1012.3
20220123150710 -10 62 4.8 14.5 0.00 0.00 0.00 82 1012.4
20220123150209 -10 21 6.4 14.5 0.00 0.00 0.00 83 1012.4
20220123145707 -10 162 3.2 11.3 0.00 0.00 0.00 84 1012.4
20220123145205 -11 56 4.8 19.3 0.00 0.00 0.00 84 1012.5
20220123144705 -11 348 4.8 19.3 0.00 0.00 0.00 84 1012.4
20220123144206 -11 31 8.0 17.7 0.00 0.00 0.00 84 1012.5
20220123143707 -11 40 8.0 17.7 0.00 0.00 0.00 83 1012.6
20220123143203 -11 55 9.7 16.1 0.00 0.00 0.00 84 1012.6
20220123142702 -11 40 4.8 16.1 0.00 0.00 0.00 84 1012.5
20220123142201 -11 59 6.4 17.7 0.00 0.00 0.00 84 1012.5
20220123141706 -11 5 6.4 17.7 0.00 0.00 0.00 83 1012.5
20220123141201 -11 63 6.4 19.3 0.00 0.00 0.00 83 1012.5
20220123140702 -11 52 8.0 19.3 0.00 0.00 0.00 82 1012.5
20220123140202 -11 18 8.0 17.7 0.00 0.00 0.00 82 1012.5
20220123135702 -11 329 3.2 9.7 0.00 0.00 0.00 83 1012.5
20220123135202 -11 334 3.2 8.0 0.00 0.00 0.00 83 1012.5
20220123134703 -11 12 4.8 9.7 0.00 0.00 0.00 83 1012.4
20220123134204 -11 30 3.2 9.7 0.00 0.00 0.00 83 1012.5
20220123133703 -11 353 4.8 14.5 0.00 0.00 0.00 83 1012.4
20220123133201 -11 350 4.8 16.1 0.00 0.00 0.00 84 1012.5
20220123132703 -11 336 4.8 17.7 0.00 0.00 0.00 84 1012.4
20220123132201 -11 66 8.0 17.7 0.00 0.00 0.00 84 1012.4
20220123131701 -11 61 4.8 17.7 0.00 0.00 0.00 84 1012.4
20220123131200 -11 358 4.8 19.3 0.00 0.00 0.00 84 1012.3
20220123130703 -11 21 9.7 20.9 0.00 0.00 0.00 84 1012.3
20220123130159 -11 55 9.7 20.9 0.00 0.00 0.00 84 1012.2
20220123125700 -11 27 6.4 19.3 0.00 0.00 0.00 84 1012.3
20220123125158 -11 11 8.0 19.3 0.00 0.00 0.00 84 1012.2
20220123124656 -11 32 6.4 17.7 0.00 0.00 0.00 84 1012.2
20220123124158 -10 87 8.0 17.7 0.00 0.00 0.00 84 1012.0
20220123123659 -10 344 4.8 22.5 0.00 0.00 0.00 84 1012.0
20220123123158 -10 44 8.0 22.5 0.00 0.00 0.00 84 1011.9
20220123122654 -11 14 6.4 20.9 0.00 0.00 0.00 83 1011.9
20220123122157 -11 322 6.4 16.1 0.00 0.00 0.00 83 1011.9
20220123121652 -11 58 6.4 19.3 0.00 0.00 0.00 83 1011.9
20220123121153 -11 44 8.0 19.3 0.00 0.00 0.00 83 1011.8
20220123120655 -11 358 6.4 27.4 0.00 0.00 0.00 83 1011.8
20220123120153 -10 14 9.7 27.4 0.00 0.00 0.00 83 1011.8
20220123115654 -10 69 8.0 22.5 0.00 0.00 0.00 83 1011.8
20220123115154 -10 24 12.9 22.5 0.00 0.00 0.00 84 1011.6
20220123114653 -10 0 9.7 19.3 0.00 0.00 0.00 83 1011.7
20220123114152 -10 61 8.0 17.7 0.00 0.00 0.00 82 1011.6
20220123113653 -10 4 6.4 16.1 0.00 0.00 0.00 81 1011.6
20220123113152 -10 18 6.4 16.1 0.00 0.00 0.00 82 1011.6
20220123112649 -10 355 3.2 11.3 0.00 0.00 0.00 81 1011.5
20220123112151 -10 41 3.2 16.1 0.00 0.00 0.00 81 1011.5
20220123111646 -10 14 9.7 19.3 0.00 0.00 0.00 81 1011.5
20220123111144 -10 5 6.4 19.3 0.00 0.00 0.00 81 1011.5
20220123110643 -10 329 6.4 16.1 0.00 0.00 0.00 82 1011.5
20220123110143 -10 45 9.7 24.1 0.00 0.00 0.00 82 1011.4
20220123105643 -10 40 8.0 24.1 0.00 0.00 0.00 83 1011.4
20220123105146 -10 357 9.7 19.3 0.00 0.00 0.00 83 1011.3
20220123104641 -10 25 8.0 19.3 0.00 0.00 0.00 84 1011.3
20220123104142 -10 345 4.8 19.3 0.00 0.00 0.00 84 1011.3
20220123103642 -10 27 8.0 22.5 0.00 0.00 0.00 84 1011.1
20220123103141 -10 330 8.0 22.5 0.00 0.00 0.00 84 1011.2
20220123102641 -10 354 6.4 19.3 0.00 0.00 0.00 85 1011.1